Time,TemperatureF,DewpointF,PressureIn,WindDirection,WindDirectionDegrees,WindSpeedMPH,WindSpeedGustMPH,Humidity,HourlyPrecipIn,Conditions,Clouds,dailyrainin,SoftwareType,DateUTC
2013-03-24 00:02:00,50.0,-2.0,29.98,NNW,336,14.0,23.0,11,0.00,,,0.00,,2013-03-24 07:02:00,
2013-03-24 00:11:00,50.0,-2.0,29.98,NNW,336,14.0,23.0,11,0.00,,,0.00,,2013-03-24 07:11:00,
2013-03-24 00:21:00,51.0,-8.0,29.98,NNW,336,13.0,25.0,8,0.00,,,0.00,,2013-03-24 07:21:00,
2013-03-24 00:32:00,51.0,-6.0,29.97,NNW,339,13.0,25.0,9,0.00,,,0.00,,2013-03-24 07:32:00,
2013-03-24 00:52:00,51.0,-8.0,29.97,North,360,14.0,25.0,8,0.00,,,0.00,,2013-03-24 07:52:00,
2013-03-24 01:21:00,51.0,-8.0,29.96,North,355,11.0,23.0,8,0.00,,,0.00,,2013-03-24 08:21:00,
2013-03-24 01:31:00,50.0,-4.0,29.95,North,5,14.0,26.0,10,0.00,,,0.00,,2013-03-24 08:31:00,
2013-03-24 01:42:00,50.0,-4.0,29.95,North,5,14.0,26.0,10,0.00,,,0.00,,2013-03-24 08:42:00,
2013-03-24 01:52:00,51.0,-4.0,29.95,North,351,18.0,30.0,10,0.00,,,0.00,,2013-03-24 08:52:00,
2013-03-24 02:01:00,51.0,-4.0,29.95,North,360,12.0,23.0,10,0.00,,,0.00,,2013-03-24 09:01:00,
2013-03-24 02:11:00,51.0,-4.0,29.95,North,360,12.0,23.0,10,0.00,,,0.00,,2013-03-24 09:11:00,
2013-03-24 02:21:00,51.0,-4.0,29.95,North,10,11.0,25.0,10,0.00,,,0.00,,2013-03-24 09:21:00,
2013-03-24 02:32:00,51.0,-4.0,29.95,North,5,12.0,25.0,10,0.00,,,0.00,,2013-03-24 09:32:00,
2013-03-24 02:42:00,51.0,-4.0,29.95,North,5,12.0,25.0,10,0.00,,,0.00,,2013-03-24 09:42:00,
2013-03-24 02:52:00,50.0,-2.0,29.95,NNW,340,15.0,24.0,11,0.00,,,0.00,,2013-03-24 09:52:00,
2013-03-24 03:02:00,51.0,-2.0,29.94,NW,324,13.0,21.0,11,0.00,,,0.00,,2013-03-24 10:02:00,
2013-03-24 03:12:00,51.0,-2.0,29.94,NW,324,13.0,21.0,11,0.00,,,0.00,,2013-03-24 10:12:00,
2013-03-24 03:22:00,51.0,-2.0,29.95,NNW,341,15.0,37.0,11,0.00,,,0.00,,2013-03-24 10:22:00,
2013-03-24 03:32:00,51.0,0.0,29.94,North,350,12.0,22.0,12,0.00,,,0.00,,2013-03-24 10:32:00,
2013-03-24 03:41:00,51.0,0.0,29.94,North,350,12.0,22.0,12,0.00,,,0.00,,2013-03-24 10:41:00,
2013-03-24 03:52:00,50.0,-1.0,29.94,North,355,12.0,25.0,12,0.00,,,0.00,,2013-03-24 10:52:00,
2013-03-24 04:02:00,51.0,0.0,29.94,NNE,21,13.0,20.0,12,0.00,,,0.00,,2013-03-24 11:02:00,
2013-03-24 04:11:00,51.0,0.0,29.94,NNE,21,13.0,20.0,12,0.00,,,0.00,,2013-03-24 11:11:00,
2013-03-24 04:21:00,51.0,-2.0,29.93,NNW,336,10.0,20.0,11,0.00,,,0.00,,2013-03-24 11:21:00,
2013-03-24 04:32:00,52.0,1.0,29.93,NNW,344,12.0,22.0,12,0.00,,,0.00,,2013-03-24 11:32:00,
2013-03-24 04:52:00,51.0,4.0,29.94,NNW,346,10.0,19.0,14,0.00,,,0.00,,2013-03-24 11:52:00,
2013-03-24 05:02:00,50.0,3.0,29.94,North,350,10.0,18.0,14,0.00,,,0.00,,2013-03-24 12:02:00,
2013-03-24 05:11:00,50.0,3.0,29.94,North,350,10.0,18.0,14,0.00,,,0.00,,2013-03-24 12:11:00,
2013-03-24 05:22:00,50.0,6.0,29.95,North,355,9.0,20.0,16,0.00,,,0.00,,2013-03-24 12:22:00,
2013-03-24 05:32:00,50.0,6.0,29.95,North,355,10.0,17.0,16,0.00,,,0.00,,2013-03-24 12:32:00,
2013-03-24 05:41:00,50.0,6.0,29.95,North,355,10.0,17.0,16,0.00,,,0.00,,2013-03-24 12:41:00,
2013-03-24 05:52:00,51.0,6.0,29.95,North,355,11.0,19.0,16,0.00,,,0.00,,2013-03-24 12:52:00,
2013-03-24 06:01:00,51.0,8.0,29.95,NNW,338,9.0,17.0,17,0.00,,,0.00,,2013-03-24 13:01:00,
2013-03-24 06:12:00,51.0,8.0,29.95,NNW,338,9.0,17.0,17,0.00,,,0.00,,2013-03-24 13:12:00,
2013-03-24 06:22:00,51.0,9.0,29.96,North,5,10.0,15.0,18,0.00,,,0.00,,2013-03-24 13:22:00,
2013-03-24 06:31:00,51.0,10.0,29.96,North,5,9.0,18.0,19,0.00,,,0.00,,2013-03-24 13:31:00,
2013-03-24 06:42:00,51.0,10.0,29.96,North,5,9.0,18.0,19,0.00,,,0.00,,2013-03-24 13:42:00,
2013-03-24 06:52:00,51.0,10.0,29.96,North,9,11.0,17.0,19,0.00,,,0.00,,2013-03-24 13:52:00,
2013-03-24 07:01:00,50.0,11.0,29.96,North,355,9.0,16.0,20,0.00,,,0.00,,2013-03-24 14:01:00,
2013-03-24 07:11:00,50.0,11.0,29.96,North,355,9.0,16.0,20,0.00,,,0.00,,2013-03-24 14:11:00,
2013-03-24 07:21:00,50.0,12.0,29.97,NNW,338,7.0,12.0,21,0.00,,,0.00,,2013-03-24 14:21:00,
2013-03-24 07:31:00,49.0,11.0,29.98,North,360,6.0,13.0,21,0.00,,,0.00,,2013-03-24 14:31:00,
2013-03-24 07:42:00,49.0,11.0,29.98,North,360,6.0,13.0,21,0.00,,,0.00,,2013-03-24 14:42:00,
2013-03-24 07:52:00,48.0,12.0,29.98,North,355,6.0,10.0,23,0.00,,,0.00,,2013-03-24 14:52:00,
2013-03-24 08:01:00,48.0,11.0,29.99,NW,326,7.0,12.0,22,0.00,,,0.00,,2013-03-24 15:01:00,
2013-03-24 08:11:00,48.0,11.0,29.99,NW,326,7.0,12.0,22,0.00,,,0.00,,2013-03-24 15:11:00,
2013-03-24 08:22:00,48.0,10.0,30.00,North,350,5.0,10.0,21,0.00,,,0.00,,2013-03-24 15:22:00,
2013-03-24 08:32:00,48.0,11.0,30.00,North,355,6.0,9.0,22,0.00,,,0.00,,2013-03-24 15:32:00,
2013-03-24 08:42:00,48.0,11.0,30.00,North,355,6.0,9.0,22,0.00,,,0.00,,2013-03-24 15:42:00,
2013-03-24 08:53:00,49.0,13.0,30.00,North,5,4.0,9.0,23,0.00,,,0.00,,2013-03-24 15:53:00,
2013-03-24 09:02:00,49.0,13.0,30.00,North,5,4.0,9.0,23,0.00,,,0.00,,2013-03-24 16:02:00,
2013-03-24 09:12:00,49.0,13.0,30.00,North,5,4.0,9.0,23,0.00,,,0.00,,2013-03-24 16:12:00,
2013-03-24 09:22:00,52.0,18.0,30.01,North,360,3.0,10.0,26,0.00,,,0.00,,2013-03-24 16:22:00,
2013-03-24 09:32:00,53.0,20.0,30.01,North,355,3.0,8.0,27,0.00,,,0.00,,2013-03-24 16:32:00,
2013-03-24 09:43:00,53.0,20.0,30.01,North,355,3.0,8.0,27,0.00,,,0.00,,2013-03-24 16:43:00,
2013-03-24 09:52:00,53.0,21.0,30.01,North,5,4.0,8.0,28,0.00,,,0.00,,2013-03-24 16:52:00,
2013-03-24 10:02:00,55.0,23.0,30.01,North,360,3.0,11.0,29,0.00,,,0.00,,2013-03-24 17:02:00,
2013-03-24 10:11:00,55.0,23.0,30.01,North,360,3.0,11.0,29,0.00,,,0.00,,2013-03-24 17:11:00,
2013-03-24 10:22:00,56.0,23.0,30.01,North,11,4.0,9.0,28,0.00,,,0.00,,2013-03-24 17:22:00,
2013-03-24 10:32:00,57.0,24.0,30.01,North,355,3.0,10.0,28,0.00,,,0.00,,2013-03-24 17:32:00,
2013-03-24 10:42:00,57.0,24.0,30.01,North,355,3.0,10.0,28,0.00,,,0.00,,2013-03-24 17:42:00,
2013-03-24 10:52:00,58.0,24.0,30.01,SE,142,3.0,7.0,27,0.00,,,0.00,,2013-03-24 17:52:00,
2013-03-24 11:01:00,59.0,26.0,30.02,SW,217,4.0,8.0,28,0.00,,,0.00,,2013-03-24 18:01:00,
2013-03-24 11:11:00,59.0,26.0,30.02,SW,217,4.0,8.0,28,0.00,,,0.00,,2013-03-24 18:11:00,
2013-03-24 11:21:00,58.0,19.0,30.01,SSW,196,5.0,9.0,22,0.00,,,0.00,,2013-03-24 18:21:00,
2013-03-24 11:32:00,58.0,18.0,30.01,SSW,192,5.0,11.0,21,0.00,,,0.00,,2013-03-24 18:32:00,
2013-03-24 11:42:00,58.0,18.0,30.01,SSW,192,5.0,11.0,21,0.00,,,0.00,,2013-03-24 18:42:00,
2013-03-24 11:52:00,58.0,19.0,30.01,SSW,202,7.0,11.0,22,0.00,,,0.00,,2013-03-24 18:52:00,
2013-03-24 12:02:00,59.0,19.0,30.01,SSW,207,4.0,11.0,21,0.00,,,0.00,,2013-03-24 19:02:00,
2013-03-24 12:11:00,59.0,19.0,30.01,SSW,207,4.0,11.0,21,0.00,,,0.00,,2013-03-24 19:11:00,
2013-03-24 12:22:00,59.0,19.0,30.01,SSW,192,5.0,8.0,21,0.00,,,0.00,,2013-03-24 19:22:00,
2013-03-24 12:31:00,60.0,19.0,30.01,SE,130,6.0,12.0,20,0.00,,,0.00,,2013-03-24 19:31:00,
2013-03-24 12:42:00,60.0,19.0,30.01,SE,130,6.0,12.0,20,0.00,,,0.00,,2013-03-24 19:42:00,
2013-03-24 12:52:00,60.0,19.0,30.00,SW,217,4.0,9.0,20,0.00,,,0.00,,2013-03-24 19:52:00,
2013-03-24 13:01:00,61.0,20.0,30.00,SSE,153,5.0,10.0,20,0.00,,,0.00,,2013-03-24 20:01:00,
2013-03-24 13:11:00,61.0,20.0,30.00,SSE,153,5.0,10.0,20,0.00,,,0.00,,2013-03-24 20:11:00,
2013-03-24 13:21:00,62.0,20.0,30.00,SSW,193,3.0,6.0,20,0.00,,,0.00,,2013-03-24 20:21:00,
2013-03-24 13:31:00,61.0,20.0,29.99,SSE,167,8.0,14.0,20,0.00,,,0.00,,2013-03-24 20:31:00,
2013-03-24 13:42:00,61.0,20.0,29.99,SSE,167,8.0,14.0,20,0.00,,,0.00,,2013-03-24 20:42:00,
2013-03-24 13:52:00,62.0,22.0,29.99,SSE,148,6.0,9.0,21,0.00,,,0.00,,2013-03-24 20:52:00,
2013-03-24 14:02:00,63.0,28.0,29.98,NNW,327,2.0,9.0,26,0.00,,,0.00,,2013-03-24 21:02:00,
2013-03-24 14:11:00,63.0,28.0,29.98,NNW,327,2.0,9.0,26,0.00,,,0.00,,2013-03-24 21:11:00,
2013-03-24 14:22:00,63.0,31.0,29.97,North,360,4.0,11.0,30,0.00,,,0.00,,2013-03-24 21:22:00,
2013-03-24 14:32:00,62.0,30.0,29.97,NNW,348,7.0,12.0,30,0.00,,,0.00,,2013-03-24 21:32:00,
2013-03-24 14:42:00,62.0,30.0,29.97,NNW,348,7.0,12.0,30,0.00,,,0.00,,2013-03-24 21:42:00,
2013-03-24 14:53:00,62.0,30.0,29.97,West,271,5.0,12.0,30,0.00,,,0.00,,2013-03-24 21:53:00,
2013-03-24 15:02:00,62.0,30.0,29.96,NNE,15,6.0,10.0,30,0.00,,,0.00,,2013-03-24 22:02:00,
2013-03-24 15:12:00,62.0,30.0,29.96,North,360,9.0,12.0,30,0.00,,,0.00,,2013-03-24 22:12:00,
2013-03-24 15:22:00,62.0,30.0,29.96,North,360,9.0,12.0,30,0.00,,,0.00,,2013-03-24 22:22:00,
2013-03-24 15:32:00,61.0,31.0,29.95,NW,304,8.0,16.0,32,0.00,,,0.00,,2013-03-24 22:32:00,
2013-03-24 15:42:00,61.0,31.0,29.95,NW,304,8.0,16.0,32,0.00,,,0.00,,2013-03-24 22:42:00,
2013-03-24 15:52:00,61.0,29.0,29.95,West,269,9.0,14.0,30,0.00,,,0.00,,2013-03-24 22:52:00,
2013-03-24 16:02:00,60.0,28.0,29.95,North,360,10.0,16.0,30,0.00,,,0.00,,2013-03-24 23:02:00,
2013-03-24 16:11:00,60.0,28.0,29.95,North,360,10.0,16.0,30,0.00,,,0.00,,2013-03-24 23:11:00,
2013-03-24 16:22:00,60.0,28.0,29.95,NW,313,9.0,19.0,30,0.00,,,0.00,,2013-03-24 23:22:00,
2013-03-24 16:31:00,59.0,28.0,29.94,North,355,13.0,21.0,31,0.00,,,0.00,,2013-03-24 23:31:00,
2013-03-24 16:41:00,59.0,28.0,29.94,North,355,13.0,21.0,31,0.00,,,0.00,,2013-03-24 23:41:00,
2013-03-24 16:52:00,60.0,30.0,29.94,North,9,11.0,20.0,32,0.00,,,0.00,,2013-03-24 23:52:00,
2013-03-24 17:01:00,59.0,29.0,29.93,NNW,333,10.0,17.0,32,0.00,,,0.00,,2013-03-25 00:01:00,
2013-03-24 17:11:00,59.0,29.0,29.93,NNW,333,10.0,17.0,32,0.00,,,0.00,,2013-03-25 00:11:00,
2013-03-24 17:22:00,59.0,28.0,29.93,North,360,9.0,16.0,31,0.00,,,0.00,,2013-03-25 00:22:00,
2013-03-24 17:32:00,59.0,30.0,29.93,North,9,10.0,17.0,33,0.00,,,0.00,,2013-03-25 00:32:00,
2013-03-24 17:42:00,59.0,30.0,29.93,North,9,10.0,17.0,33,0.00,,,0.00,,2013-03-25 00:42:00,
2013-03-24 17:52:00,58.0,28.0,29.93,NNW,341,11.0,17.0,32,0.00,,,0.00,,2013-03-25 00:52:00,
2013-03-24 18:01:00,58.0,28.0,29.93,North,5,12.0,19.0,31,0.00,,,0.00,,2013-03-25 01:01:00,
2013-03-24 18:11:00,58.0,28.0,29.93,North,5,12.0,19.0,31,0.00,,,0.00,,2013-03-25 01:11:00,
2013-03-24 18:21:00,56.0,27.0,29.93,NNW,329,12.0,20.0,32,0.00,,,0.00,,2013-03-25 01:21:00,
2013-03-24 18:31:00,56.0,27.0,29.93,NNW,338,8.0,18.0,32,0.00,,,0.00,,2013-03-25 01:31:00,
2013-03-24 18:52:00,55.0,26.0,29.93,North,5,12.0,18.0,33,0.00,,,0.00,,2013-03-25 01:52:00,
2013-03-24 19:01:00,55.0,26.0,29.93,NNW,347,9.0,23.0,33,0.00,,,0.00,,2013-03-25 02:01:00,
2013-03-24 19:11:00,55.0,26.0,29.93,NNW,347,9.0,23.0,33,0.00,,,0.00,,2013-03-25 02:11:00,
2013-03-24 19:22:00,54.0,25.0,29.93,North,355,13.0,22.0,32,0.00,,,0.00,,2013-03-25 02:22:00,
2013-03-24 19:31:00,54.0,26.0,29.93,North,355,13.0,20.0,33,0.00,,,0.00,,2013-03-25 02:31:00,
2013-03-24 19:42:00,54.0,26.0,29.93,North,5,15.0,22.0,33,0.00,,,0.00,,2013-03-25 02:42:00,
2013-03-24 19:52:00,54.0,26.0,29.93,North,5,15.0,22.0,33,0.00,,,0.00,,2013-03-25 02:52:00,
2013-03-24 20:01:00,53.0,25.0,29.93,NNW,342,12.0,25.0,33,0.00,,,0.00,,2013-03-25 03:01:00,
2013-03-24 20:12:00,53.0,25.0,29.93,NNW,342,12.0,25.0,33,0.00,,,0.00,,2013-03-25 03:12:00,
2013-03-24 20:22:00,54.0,26.0,29.93,North,355,14.0,26.0,33,0.00,,,0.00,,2013-03-25 03:22:00,
2013-03-24 20:32:00,54.0,26.0,29.94,North,355,12.0,26.0,33,0.00,,,0.00,,2013-03-25 03:32:00,
2013-03-24 20:42:00,54.0,24.0,29.94,NNE,15,15.0,23.0,31,0.00,,,0.00,,2013-03-25 03:42:00,
2013-03-24 20:53:00,54.0,24.0,29.94,NNE,15,15.0,23.0,31,0.00,,,0.00,,2013-03-25 03:53:00,
2013-03-24 21:02:00,54.0,24.0,29.95,North,355,16.0,22.0,31,0.00,,,0.00,,2013-03-25 04:02:00,
2013-03-24 21:12:00,54.0,24.0,29.95,North,355,16.0,22.0,31,0.00,,,0.00,,2013-03-25 04:12:00,
2013-03-24 21:22:00,54.0,24.0,29.95,North,5,16.0,23.0,31,0.00,,,0.00,,2013-03-25 04:22:00,
2013-03-24 21:32:00,54.0,24.0,29.94,North,5,13.0,19.0,31,0.00,,,0.00,,2013-03-25 04:32:00,
2013-03-24 21:42:00,54.0,24.0,29.94,North,5,13.0,19.0,31,0.00,,,0.00,,2013-03-25 04:42:00,
2013-03-24 21:52:00,54.0,22.0,29.95,North,350,11.0,19.0,29,0.00,,,0.00,,2013-03-25 04:52:00,
2013-03-24 22:02:00,54.0,23.0,29.95,NNW,348,11.0,21.0,30,0.00,,,0.00,,2013-03-25 05:02:00,
2013-03-24 22:11:00,54.0,23.0,29.95,NNW,348,11.0,21.0,30,0.00,,,0.00,,2013-03-25 05:11:00,
2013-03-24 22:21:00,55.0,23.0,29.94,NNE,15,12.0,19.0,29,0.00,,,0.00,,2013-03-25 05:21:00,
2013-03-24 22:32:00,55.0,23.0,29.94,NNW,346,13.0,20.0,29,0.00,,,0.00,,2013-03-25 05:32:00,
2013-03-24 22:42:00,55.0,23.0,29.94,NNW,346,13.0,20.0,29,0.00,,,0.00,,2013-03-25 05:42:00,
2013-03-24 22:52:00,55.0,23.0,29.95,NNE,12,12.0,28.0,29,0.00,,,0.00,,2013-03-25 05:52:00,
2013-03-24 23:01:00,55.0,23.0,29.95,North,10,14.0,28.0,29,0.00,,,0.00,,2013-03-25 06:01:00,
2013-03-24 23:11:00,55.0,23.0,29.95,North,10,14.0,28.0,29,0.00,,,0.00,,2013-03-25 06:11:00,
2013-03-24 23:21:00,54.0,23.0,29.95,North,360,14.0,22.0,30,0.00,,,0.00,,2013-03-25 06:21:00,
2013-03-24 23:32:00,55.0,23.0,29.94,North,360,12.0,24.0,29,0.00,,,0.00,,2013-03-25 06:32:00,
2013-03-24 23:42:00,55.0,23.0,29.94,North,360,12.0,24.0,29,0.00,,,0.00,,2013-03-25 06:42:00,
2013-03-24 23:51:00,55.0,23.0,29.93,North,350,12.0,24.0,28,0.00,,,0.00,,2013-03-25 06:51:00,